Location: Albuquerque Trailhead
(34.7934°N, 106.3736°W)
Time: 15:11:44
(UTC+00:00)

ISS - Visible Passes

Search period start: 30 November 2022 00:00
Search period end: 10 December 2022 00:00
Orbit: 411 x 420 km, 51.6° (Epoch: 30 November)

Date Brightness Start Highest point End Pass type
(mag) Time Alt. Az. Time Alt. Az. Time Alt. Az.
03 Dec -1.3 01:25:38 10° NNW 01:26:11 12° N 01:26:11 12° N visible
04 Dec -1.6 00:37:39 10° N 00:38:53 12° NNE 00:39:47 11° NE visible
05 Dec -2.9 01:24:03 10° NW 01:26:29 35° N 01:26:29 35° N visible
06 Dec -2.5 00:35:30 10° NNW 00:38:17 24° NE 00:40:32 13° E visible
06 Dec -1.1 02:12:04 10° WNW 02:13:29 20° W 02:13:29 20° W visible
07 Dec -3.2 01:22:56 10° NW 01:26:11 57° SW 01:27:58 24° SSE visible
08 Dec -3.9 00:34:00 10° NW 00:37:19 69° NE 00:40:36 10° SE visible
09 Dec -0.7 01:22:35 10° W 01:24:49 17° SW 01:27:03 10° S visible
